Syracuse, NY

5:44 AM EDT on September 17, 2019 (GMT -0400)
Syracuse Hancock International

Weather History for KSYR - July, 2019

Change the Weather History Date:

Saturday, July 20, 2019

  Actual Average Record
Temperature  
Mean Temperature 86 °F 72 °F  
Max Temperature 93 °F 82 °F 96 °F (1991)
Min Temperature 78 °F 61 °F 45 °F (1965)
Degree Days  
Heating Degree Days 0 0  
Month to date heating degree days 0 2  
Since 1 June heating degree days 47 63  
Since 1 July heating degree days 0 2  
Cooling Degree Days 21 7  
Month to date cooling degree days 210 132  
Year to date cooling degree days 306 275  
Since 1 June cooling degree days 293 245  
Growing Degree Days 36 (Base 50)    
Moisture  
Dew Point 72 °F    
Average Humidity 69    
Maximum Humidity 79    
Minimum Humidity 58    
Precipitation  
Precipitation 0.00 in 0.13 in 1.76 in (1975)
Month to date precipitation 1.33 2.45  
Year to date precipitation 23.37 19.69  
Snow  
Snow 0.00 in 0.00 in 0.00 in (2002)
Month to date snowfall 0.0 0.0  
Since 1 June snowfall 0.0 0.0  
Since 1 July snowfall 0.0 0.0  
Snow Depth 0.00 in    
Sea Level Pressure  
Sea Level Pressure 29.80 in    
Wind  
Wind Speed 8 mph (WSW)    
Max Wind Speed 18 mph    
Max Gust Speed 22 mph    
Visibility 10 miles    
Events Thunderstorm    
T = Trace of Precipitation, MM = Missing Value Source: NWS Daily Summary

Daily Weather History Graph

Daily Weather History Graph

Search for Another Location

Airport or City:

Astronomy

Jul. 20, 2019 Rise Set
Actual Time 5:42 AM EDT 8:38 PM EDT
Civil Twilight 5:09 AM EDT 9:11 PM EDT
Nautical Twilight 4:26 AM EDT 9:54 PM EDT
Astronomical Twilight 3:35 AM EDT 10:44 PM EDT
Moon 10:59 PM EDT (7/20) 9:08 AM EDT (7/20)
Length of Visible Light 16h 02m
Length of Day
14h 55m
Waning Gibbous, 87% of the Moon is Illuminated
Jul 20
Waning Gibbous
Jul 24
Last Quarter
Jul 31
New
Aug 7
First Quarter
Aug 15
Full

Hourly Weather History & Observations

Time (EDT) Temp. Heat Index Dew Point Humidity Pressure Visibility Wind Dir Wind Speed Gust Speed Precip Events Conditions
12:54 AM 79.0 °F - 72.0 °F 79% 29.82 in 10.0 mi West 3.5 mph - N/A   Scattered Clouds
1:54 AM 79.0 °F - 72.0 °F 79% 29.82 in 10.0 mi WSW 6.9 mph - N/A   Scattered Clouds
2:54 AM 79.0 °F - 72.0 °F 79% 29.80 in 10.0 mi SW 4.6 mph - N/A   Scattered Clouds
3:54 AM 78.1 °F - 72.0 °F 81% 29.81 in 10.0 mi SW 3.5 mph - N/A   Scattered Clouds
4:54 AM 78.1 °F - 71.1 °F 79% 29.82 in 10.0 mi WSW 4.6 mph - N/A   Scattered Clouds
5:54 AM 78.1 °F - 71.1 °F 79% 29.82 in 10.0 mi SW 5.8 mph - N/A   Mostly Cloudy
6:54 AM 80.1 °F 83.6 °F 71.1 °F 74% 29.82 in 10.0 mi WSW 10.4 mph - N/A   Mostly Cloudy
7:23 AM 81.0 °F 85.2 °F 72.0 °F 74% 29.85 in 10.0 mi WSW 8.1 mph - N/A   Mostly Cloudy
7:48 AM 80.6 °F 84.6 °F 71.6 °F 74% 29.86 in 10.0 mi WSW 8.1 mph - N/A   Overcast
7:54 AM 81.0 °F 84.9 °F 71.1 °F 72% 29.84 in 10.0 mi WSW 9.2 mph - N/A   Overcast
8:54 AM 82.9 °F 87.5 °F 71.1 °F 67% 29.83 in 10.0 mi West 6.9 mph - N/A   Overcast
9:54 AM 84.0 °F 89.6 °F 72.0 °F 67% 29.84 in 10.0 mi WSW 8.1 mph - N/A   Overcast
10:54 AM 84.9 °F 91.4 °F 73.0 °F 67% 29.83 in 10.0 mi West 11.5 mph - N/A   Mostly Cloudy
11:54 AM 86.0 °F 93.0 °F 73.0 °F 65% 29.81 in 10.0 mi SSW 8.1 mph - N/A   Mostly Cloudy
12:01 PM 86.0 °F 93.0 °F 73.0 °F 65% 29.83 in 10.0 mi WSW 6.9 mph - N/A   Mostly Cloudy
12:54 PM 87.1 °F 96.3 °F 75.0 °F 67% 29.81 in 10.0 mi West 5.8 mph - N/A   Overcast
1:09 PM 87.1 °F 96.3 °F 75.0 °F 67% 29.81 in 10.0 mi South 5.8 mph - N/A   Mostly Cloudy
1:54 PM 89.1 °F 99.1 °F 75.0 °F 63% 29.78 in 10.0 mi SSW 8.1 mph - N/A   Mostly Cloudy
2:54 PM 91.0 °F 102.9 °F 75.9 °F 61% 29.75 in 10.0 mi WSW 9.2 mph - N/A   Mostly Cloudy
3:54 PM 90.0 °F 100.2 °F 75.0 °F 61% 29.75 in 10.0 mi SW 10.4 mph - N/A   Mostly Cloudy
4:54 PM 91.9 °F 103.2 °F 75.0 °F 58% 29.75 in 10.0 mi SW 11.5 mph - N/A   Mostly Cloudy
5:54 PM 91.9 °F 103.2 °F 75.0 °F 58% 29.74 in 10.0 mi WSW 13.8 mph - N/A   Overcast
6:03 PM 91.0 °F 101.6 °F 75.0 °F 59% 29.75 in 10.0 mi WSW 15.0 mph - N/A Thunderstorm Thunderstorm
6:22 PM 91.9 °F 103.2 °F 75.0 °F 58% 29.75 in 10.0 mi West 15.0 mph - N/A Thunderstorm Thunderstorm
6:44 PM 91.0 °F 102.9 °F 75.9 °F 61% 29.78 in 10.0 mi WNW 12.7 mph 20.7 mph N/A Thunderstorm Thunderstorm
6:54 PM 90.0 °F 101.3 °F 75.9 °F 63% 29.78 in 10.0 mi WNW 12.7 mph - N/A Thunderstorm Thunderstorm
7:15 PM 84.9 °F 88.8 °F 69.1 °F 59% 29.80 in 10.0 mi SW 12.7 mph - N/A   Overcast
7:54 PM 84.9 °F 88.8 °F 69.1 °F 59% 29.77 in 10.0 mi SW 5.8 mph - N/A   Mostly Cloudy
8:54 PM 82.0 °F 85.9 °F 70.0 °F 67% 29.78 in 10.0 mi South 4.6 mph - N/A   Scattered Clouds
9:54 PM 81.0 °F 84.9 °F 71.1 °F 72% 29.79 in 10.0 mi South 5.8 mph - N/A   Scattered Clouds
10:54 PM 82.0 °F 85.9 °F 70.0 °F 67% 29.79 in 10.0 mi WSW 9.2 mph - N/A   Scattered Clouds
11:54 PM 82.0 °F 84.5 °F 66.9 °F 60% 29.78 in 10.0 mi SW 10.4 mph - N/A   Scattered Clouds